EW2725 Weather Reports


Display with metric or nautical units.
time (UTC)temp
F
wind
direction
speed
MPH
gust
MPH
rain 1hr
in
rain 24hr
in
rain mn
in
humidity
%
barometer
mb
20260904101558 65 15 0.0 0.0 0.00 0.00 0.01 93 1100.1
20260904100130 65 15 0.0 0.0 0.00 0.00 0.01 93 1100.1
20260904094631 65 15 0.0 0.0 0.00 0.00 0.01 93 1100.1
20260904093055 65 15 0.0 0.0 0.00 0.00 0.01 93 1100.1
20260904091609 64 15 0.0 0.0 0.00 0.00 0.01 92 1100.1
20260904090014 65 15 0.0 0.0 0.00 0.00 0.01 92 1100.1
20260904084513 65 15 1.0 0.0 0.00 0.00 0.01 93 1100.1
20260904083111 66 15 2.0 0.0 0.00 0.00 0.01 93 1100.1
20260904081607 66 15 1.0 0.0 0.00 0.00 0.01 92 1100.1
20260904080119 66 15 1.0 0.0 0.00 0.00 0.00 93 1100.1
20260904074619 66 15 0.0 0.0 0.00 0.00 0.00 93 1100.1
20260904073128 66 15 0.0 0.0 0.00 0.00 0.00 92 1100.1
20260904071629 67 15 1.0 0.0 0.00 0.00 0.00 92 1100.1
20260904070116 65 15 0.0 0.0 0.00 0.00 0.00 92 1100.1
20260904064616 66 15 0.0 0.0 0.00 0.00 0.00 92 1100.1
20260904063126 66 15 0.0 0.0 0.00 0.00 0.00 92 1100.1
20260904061509 66 15 0.0 0.0 0.00 0.00 0.00 92 1100.1
20260904060059 66 15 0.0 0.0 0.00 0.00 0.00 92 1100.1
20260904054603 66 15 0.0 0.0 0.00 0.00 0.00 92 1100.1
20260904053109 66 15 0.0 0.0 0.00 0.00 0.00 92 1100.1
20260904051609 66 15 0.0 0.0 0.00 0.00 0.00 92 1100.1
20260904050115 66 15 0.0 0.0 0.00 0.00 0.00 92 1100.1
20260904044631 67 15 0.0 0.0 0.00 0.00 0.56 92 1100.1
20260904043119 67 15 0.0 0.0 0.00 0.00 0.56 92 1100.1
20260904041621 67 15 0.0 0.0 0.00 0.00 0.56 92 1100.1
20260904040012 67 15 0.0 0.0 0.00 0.00 0.56 92 1100.1
20260904034559 67 15 0.0 0.0 0.00 0.00 0.56 92 1100.1
20260904033114 67 15 0.0 0.0 0.00 0.00 0.56 92 1100.1
20260904031617 66 184 0.0 0.0 0.00 0.00 0.56 92 1100.1
20260904030138 66 184 0.0 0.0 0.00 0.00 0.56 92 1100.1
20260904024558 66 184 0.0 0.0 0.00 0.00 0.56 92 1100.1
20260904023008 66 184 0.0 0.0 0.00 0.00 0.56 92 1100.1
20260904021610 66 184 0.0 0.0 0.00 0.00 0.56 92 1100.1
20260904020117 66 184 0.0 0.0 0.00 0.00 0.56 91 1100.1
20260904014622 67 184 0.0 0.0 0.00 0.00 0.56 91 1100.1
20260904013122 67 184 0.0 0.0 0.00 0.00 0.56 91 1100.1
20260904011615 67 184 0.0 0.0 0.00 0.00 0.56 91 1100.1
20260904010113 67 184 0.0 0.0 0.00 0.00 0.56 91 1100.1
20260904004501 68 184 0.0 0.0 0.00 0.00 0.56 91 1100.1
20260904003128 69 184 0.0 0.0 0.00 0.00 0.56 91 1100.1
20260904001638 69 184 0.0 0.0 0.00 0.00 0.56 91 1100.1
20260903234642 70 184 0.0 0.0 0.00 0.00 0.56 91 1100.1
20260903233141 70 184 0.0 0.0 0.00 0.00 0.56 91 1100.1
20260903231627 71 184 0.0 0.0 0.00 0.00 0.56 91 1100.1
20260903230130 71 184 0.0 0.0 0.00 0.00 0.56 90 1100.1
20260903224623 71 184 0.0 0.0 0.00 0.00 0.56 90 1100.1
20260903223134 72 184 0.0 0.0 0.00 0.00 0.56 90 1100.1
20260903221612 72 180 1.0 0.0 0.00 0.00 0.56 90 1100.1
20260903220112 72 180 0.0 0.0 0.00 0.00 0.56 90 1100.1
20260903214619 72 180 0.0 0.0 0.00 0.00 0.56 88 1100.1
20260903213117 73 180 1.0 0.0 0.00 0.00 0.43 87 1100.1
20260903210146 73 19 2.0 0.0 0.00 0.00 0.26 86 1100.1
20260903204614 73 26 4.0 0.0 0.00 0.00 0.26 85 1100.1
20260903203025 75 178 1.0 0.0 0.00 0.00 0.26 84 1100.1
20260903201622 75 178 1.0 0.0 0.00 0.00 0.26 84 1100.1
20260903200127 75 221 2.0 0.0 0.00 0.00 0.26 83 1100.1
20260903194637 75 209 3.0 0.0 0.00 0.00 0.26 83 1100.1
20260903193007 76 233 2.0 0.0 0.00 0.00 0.26 82 1100.1
20260903191513 75 223 4.0 0.0 0.00 0.00 0.26 82 1100.1
20260903190114 76 252 2.0 0.0 0.00 0.00 0.26 82 1100.1
20260903184603 75 252 2.0 0.0 0.00 0.00 0.26 82 1100.1
20260903183109 76 252 3.0 0.0 0.00 0.00 0.26 80 1100.1
20260903181556 75 252 5.0 0.0 0.00 0.00 0.26 83 1100.1
20260903180128 75 252 3.0 0.0 0.00 0.00 0.26 84 1100.1
20260903174626 76 252 2.0 0.0 0.00 0.00 0.26 85 1100.1
20260903173124 75 252 3.0 0.0 0.00 0.00 0.26 86 1100.1
20260903171631 74 252 4.0 0.0 0.00 0.00 0.26 86 1100.1
20260903170135 74 252 3.0 0.0 0.00 0.00 0.26 86 1100.1
20260903164638 75 252 2.0 0.0 0.00 0.00 0.26 86 1100.1
20260903163132 75 252 2.0 0.0 0.00 0.00 0.26 84 1100.1
20260903161624 75 252 1.0 0.0 0.00 0.00 0.26 84 1100.1
20260903160125 74 252 2.0 0.0 0.00 0.00 0.26 87 1100.1
20260903154619 74 252 1.0 0.0 0.00 0.00 0.26 90 1100.1
20260903153124 72 252 2.0 0.0 0.00 0.00 0.26 90 1100.1
20260903151629 72 252 2.0 0.0 0.00 0.00 0.26 91 1100.1
20260903150120 72 252 2.0 0.0 0.00 0.00 0.26 92 1100.1
20260903144623 71 252 2.0 0.0 0.00 0.00 0.26 92 1100.1
20260903143125 71 252 2.0 0.0 0.00 0.00 0.26 92 1100.1
20260903141635 70 252 2.0 0.0 0.00 0.00 0.26 92 1100.1
20260903140138 70 252 1.0 0.0 0.00 0.00 0.26 92 1100.1
20260903134634 68 252 2.0 0.0 0.00 0.00 0.26 91 1100.1
20260903133132 68 252 2.0 0.0 0.00 0.00 0.26 91 1100.1
20260903131635 68 252 2.0 0.0 0.00 0.00 0.25 91 1100.1
20260903130020 67 252 3.0 0.0 0.00 0.00 0.25 91 1100.1
20260903124607 67 252 3.0 0.0 0.00 0.00 0.25 91 1100.1
20260903123114 66 192 4.0 0.0 0.00 0.00 0.24 91 1100.1
20260903121620 66 144 2.0 0.0 0.00 0.00 0.23 91 1100.1
20260903120119 66 270 2.0 0.0 0.00 0.00 0.22 91 1100.1
20260903114623 66 76 3.0 0.0 0.00 0.00 0.19 90 1100.1
20260903113136 66 180 2.0 0.0 0.00 0.00 0.19 90 1100.1
20260903111634 65 217 2.0 0.0 0.00 0.00 0.19 90 1100.1
20260903110004 65 241 1.0 0.0 0.00 0.00 0.19 90 1100.1
20260903104634 65 241 1.0 0.0 0.00 0.00 0.19 90 1100.1
20260903103053 65 241 1.0 0.0 0.00 0.00 0.18 90 1100.1